User: anonymous   Login
Location: Ash Swamp
(41.5170°N, 74.6157°W)
Time: 20:57:48
(UTC+00:00)
Language:

Abrixas rocket - Orbit

View from above orbital plane
View from above orbital plane
View from above satellite
View from above satellite

Ground track
Ground track

The orbit data is extracted from the following two-line orbital elements,

1 25723U 99022C   20269.45655628  .00033212  00000-0  19729-3 0  9993
2 25723  48.4104 173.5750 0004720 129.8511 230.2859 15.77572493193754
Epoch (UTC): 25 September 2020 10:57:26
Eccentricity: 0.0004720
inclination: 48.4104°
perigee height: 334 km
apogee height: 340 km
right ascension of ascending node: 173.5750°
argument of perigee: 129.8511°
revolutions per day: 15.77572493
mean anomaly at epoch: 230.2859°
orbit number at epoch: 19375

The dashed part of the orbit path shows where the satellite is in the earth's shadow,  

DLR